Location: Newark
(44.3290°N, 23.7757°E)
Time: 04:30:46
(UTC+00:00)

BlueWalker 3 - Visible Passes

Search period start: 30 November 2022 00:00
Search period end: 10 December 2022 00:00
Orbit: 500 x 519 km, 53.2° (Epoch: 29 November)

Date Brightness Start Highest point End Pass type
(mag) Time Alt. Az. Time Alt. Az. Time Alt. Az.
30 Nov 3.6 16:38:59 10° WNW 16:42:07 22° N 16:42:29 22° N visible
01 Dec 3.6 16:20:40 10° WNW 16:23:46 22° N 16:24:49 20° NNE visible
02 Dec 3.6 16:02:19 10° WNW 16:05:26 22° N 16:07:09 17° NNE visible
02 Dec 4.8 17:41:31 10° NW 17:41:58 13° NW 17:41:58 13° NW visible
03 Dec 3.6 15:43:58 10° NW 15:47:05 22° N 15:49:30 13° NE visible
03 Dec 4.3 17:23:07 10° NW 17:24:20 17° NW 17:24:20 17° NW visible
04 Dec 3.6 15:25:37 10° NW 15:28:44 22° N 15:31:49 10° NE visible
04 Dec 3.8 17:04:44 10° NW 17:06:43 23° NNW 17:06:43 23° NNW visible
05 Dec 3.2 16:46:20 10° NW 16:49:09 30° N 16:49:09 30° N visible
06 Dec 2.8 16:27:55 10° NW 16:31:30 33° NNE 16:31:39 33° NNE visible
07 Dec 2.7 16:09:29 10° NW 16:13:07 35° NNE 16:14:15 28° ENE visible
07 Dec 4.7 17:48:07 10° WNW 17:49:05 17° WNW 17:49:05 17° WNW visible
08 Dec 2.7 15:51:04 10° NW 15:54:43 36° NNE 15:56:57 19° ENE visible
08 Dec 3.9 17:29:42 10° WNW 17:31:48 28° WNW 17:31:48 28° WNW visible
09 Dec 2.6 15:32:38 10° NW 15:36:18 37° NNE 15:39:50 11° E visible
09 Dec 2.9 17:11:18 10° WNW 17:14:42 45° WSW 17:14:42 45° WSW visible
